Wind_Speed
23 24 25 24 22 21 22 22 23 25 26 28 28 28 26 24 22 20 18 17 15 15 14 14 14 13 13 13 12 12 12 12 11 11 11 10 10 10 10 10 10 11 11 12 13 13 14 14 14 14 14 13 12 12 12 12 12 11 11 10 10 9 9 9 9 9 9 9 9
25 25 25 23 22 21 22 23 25 26 28 29 29 28 26 23 21 20 18 17 16 15 14 14 14 13 13 13 13 13 13 12 12 11 11 11 10 10 10 11 11 12 12 13 13 13 13 14 13 13 13 13 12 11 10 12 12 12 11 10 9 9 10 10 10 9 9 9 9
26 25 24 22 21 22 23 24 26 27 28 29 28 27 25 23 21 19 18 17 16 15 14 14 14 14 14 14 14 14 13 13 12 12 11 11 11 11 11 11 12 12 13 13 14 14 14 13 13 13 13 12 11 10 10 10 12 12 11 10 10 10 10 10 10 10 9 10 10
27 25 24 22 22 23 24 25 26 27 28 28 27 26 24 22 21 19 18 17 16 15 14 14 14 14 14 15 14 14 14 13 12 12 12 11 11 11 11 12 12 13 13 14 14 14 14 13 13 13 12 11 10 9 9 10 11 11 11 11 11 11 10 10 10 10 10 10 10
27 26 24 23 23 23 24 25 27 27 28 27 26 25 24 22 21 19 18 17 16 15 15 15 15 15 15 15 15 14 14 13 13 12 12 12 12 12 12 12 13 13 14 14 14 14 13 13 13 13 12 12 11 11 11 11 11 11 11 11 11 11 11 11 10 11 11 11 11
27 26 24 24 23 24 25 26 27 28 28 27 26 25 24 22 21 19 18 17 16 15 15 15 15 15 16 15 15 15 14 14 13 13 12 12 12 12 13 13 13 14 14 14 14 14 13 13 13 12 12 12 12 12 12 12 12 12 11 11 11 11 11 11 11 11 11 12 12
27 26 25 24 24 25 26 27 27 28 28 27 26 25 24 23 21 19 18 17 16 16 16 16 16 16 16 16 15 15 14 14 13 13 13 13 13 13 13 13 14 14 14 14 14 13 13 13 12 12 12 12 11 11 11 12 12 12 12 11 11 11 11 11 12 12 13 13 13
27 26 25 25 26 27 27 28 28 29 28 27 26 25 24 22 21 19 18 17 17 17 17 17 17 17 16 16 16 15 15 14 14 13 13 13 13 13 13 14 14 14 14 14 13 13 13 13 12 12 11 11 12 11 11 12 12 13 13 13 12 12 12 12 13 14 14 15 15
27 26 26 26 27 28 29 29 29 29 28 27 26 25 24 22 20 19 18 18 17 17 17 17 17 17 16 16 16 15 15 14 14 14 14 14 13 13 14 14 14 14 14 14 13 13 13 13 13 12 12 12 12 12 12 13 14 15 15 14 14 13 13 13 13 13 13 15 16
28 27 27 27 28 29 29 30 30 29 28 27 26 25 23 22 20 19 18 18 17 17 17 17 17 17 17 16 16 15 15 15 14 14 14 14 14 14 14 14 13 13 13 13 13 13 13 13 13 13 13 13 13 13 14 14 15 15 15 15 15 15 14 14 13 13 13 14 15
28 28 28 28 29 30 30 30 30 29 28 27 26 24 23 21 20 19 18 18 17 17 18 17 17 17 17 16 16 16 15 15 14 14 14 14 14 14 14 14 13 13 13 13 13 13 13 14 13 13 13 13 14 14 15 16 16 16 16 15 16 16 16 16 15 14 13 14 14
28 28 29 29 30 30 30 30 30 29 28 27 26 24 23 21 20 19 18 18 17 18 18 17 17 17 17 17 16 16 15 15 15 14 14 14 14 14 14 14 14 13 13 14 14 14 14 14 15 15 15 14 14 14 15 15 16 16 16 16 16 16 16 16 15 15 14 13 14
28 29 29 30 30 31 31 31 30 29 28 27 25 24 22 21 20 20 19 18 18 18 18 18 17 17 17 17 16 16 15 15 15 14 14 14 14 14 14 14 14 14 14 15 15 15 15 16 16 17 17 16 16 15 15 15 16 16 16 16 16 15 15 16 16 16 15 14 14
29 29 30 30 31 31 31 31 30 29 28 26 25 24 23 22 21 20 19 18 18 19 19 18 18 17 17 17 16 16 15 15 15 14 14 14 15 15 15 15 15 15 15 15 16 16 17 17 17 18 18 18 17 16 16 16 16 16 16 16 16 16 16 16 16 16 16 15 15
29 30 30 31 31 31 31 31 30 28 27 26 25 24 23 22 21 20 19 19 19 19 19 18 18 18 17 17 16 16 15 15 15 14 14 15 15 15 15 15 15 15 16 16 17 17 18 18 18 19 18 18 18 18 17 17 17 17 17 17 17 18 18 18 17 17 16 16 15
30 31 31 31 32 32 31 31 29 28 26 26 25 24 23 22 21 20 20 20 20 19 19 19 18 18 17 17 16 16 15 15 15 15 15 15 15 15 16 15 15 16 17 17 17 18 19 19 19 19 19 19 19 18 18 18 18 18 18 18 19 19 19 19 18 17 16 16 16
31 31 31 32 32 32 32 30 29 27 26 26 26 25 23 22 21 21 21 21 20 20 19 19 18 18 17 16 16 16 15 15 15 15 15 16 16 16 16 16 16 17 17 18 18 18 19 19 19 19 19 19 19 19 18 18 18 19 19 19 19 19 19 19 18 17 16 15 16
31 31 32 32 32 32 32 30 29 28 27 26 26 25 23 22 22 21 21 21 20 20 19 18 18 17 17 16 16 16 15 15 15 16 16 16 16 16 16 17 17 17 18 18 19 19 19 19 19 19 19 19 19 19 19 19 19 19 19 19 19 20 20 19 19 18 17 16 16
31 31 32 32 32 32 31 31 30 29 28 27 26 24 23 22 22 21 21 20 20 19 18 18 17 17 16 16 16 16 15 16 16 16 17 17 17 17 17 17 17 18 19 19 19 19 19 19 19 19 19 19 19 19 19 19 19 19 19 20 20 20 20 20 20 19 19 18 19
30 31 31 31 31 31 31 30 30 29 28 27 25 24 23 22 21 21 21 20 19 18 17 17 16 16 16 16 16 16 16 16 17 17 17 18 18 18 17 17 18 18 19 19 19 19 19 19 19 19 19 19 20 20 19 19 19 20 20 20 20 20 21 21 21 20 20 20 20
29 30 30 30 30 30 30 30 30 29 27 26 24 23 22 22 21 20 20 19 18 17 17 16 16 16 16 16 16 16 17 17 17 17 18 18 18 18 18 18 18 18 19 20 20 19 19 19 19 19 19 20 20 20 20 19 20 20 20 20 21 21 21 21 21 21 21 21 21
28 28 28 28 29 29 29 30 29 28 27 25 23 22 22 21 20 20 19 18 17 16 16 16 15 15 16 16 16 17 17 18 18 18 18 18 18 18 18 18 18 19 19 20 20 20 19 19 19 19 20 20 20 20 20 20 20 20 20 20 21 21 22 22 22 22 22 23 23
27 27 27 27 28 29 29 29 29 27 25 24 23 22 21 20 20 19 18 17 16 16 15 15 15 16 16 16 17 17 18 18 18 19 18 18 18 18 18 18 18 19 19 20 20 20 19 19 20 20 20 20 20 20 20 20 20 20 21 21 21 22 22 23 23 23 24 24 24
26 26 27 28 28 29 29 29 27 26 24 23 22 21 20 20 19 18 17 16 15 15 15 15 15 16 16 17 17 18 18 19 19 19 19 18 18 18 18 18 19 19 20 21 21 20 20 20 20 20 20 20 20 20 20 20 20 20 20 20 21 22 23 23 24 24 25 25 25
26 27 27 28 29 29 29 28 26 25 24 23 21 20 19 18 17 16 15 15 15 15 15 15 16 16 17 17 18 18 19 19 19 19 19 18 18 18 18 19 19 20 21 21 21 20 20 20 20 20 20 20 20 19 18 18 17 17 17 18 19 20 21 22 23 23 23 23 23
26 27 28 28 29 29 28 26 25 24 23 22 20 19 18 17 16 15 15 14 15 15 15 16 16 17 17 18 18 19 19 19 19 19 18 18 18 18 19 19 20 21 22 21 21 20 20 20 20 20 20 19 19 17 16 15 16 16 17 17 18 19 20 21 21 21 21 21 21
27 27 28 28 28 28 27 26 24 23 22 20 19 18 17 15 15 14 14 14 15 15 15 16 17 17 18 18 19 19 19 19 19 19 19 18 18 19 19 19 21 22 22 22 21 20 20 20 20 19 19 18 17 17 17 16 16 17 17 18 19 20 21 22 22 22 21 20 20
26 27 28 28 28 27 26 25 23 22 20 19 17 16 15 14 14 14 14 15 15 15 16 16 17 17 18 19 19 20 20 20 19 19 19 19 19 20 20 21 22 22 23 22 22 21 21 20 20 19 19 18 17 17 17 17 17 17 18 18 18 19 20 20 20 20 20 19 19
26 26 27 28 27 27 25 24 22 20 19 17 16 15 14 14 14 14 15 15 15 16 16 17 17 18 18 19 20 20 20 20 20 20 20 20 20 21 21 22 22 23 23 23 22 21 21 21 20 20 19 19 18 17 17 17 17 17 18 18 18 18 18 19 19 19 19 19 18
25 26 27 27 27 26 25 23 21 19 18 16 15 14 14 14 14 15 15 15 16 16 16 17 18 18 19 19 19 19 20 20 20 20 20 20 21 22 22 23 23 24 24 23 22 22 22 21 21 21 20 19 19 18 18 18 18 18 18 18 19 19 19 19 20 20 19 19 19
25 26 27 27 26 25 23 21 19 18 16 15 15 14 14 14 15 15 15 15 15 16 16 17 18 18 19 19 19 20 20 20 20 21 21 21 22 22 23 23 24 24 24 24 23 22 22 22 21 21 20 20 19 19 18 18 19 19 19 20 20 20 20 20 20 20 20 20 20
26 27 27 26 25 23 22 20 18 17 15 15 14 14 14 15 15 15 15 15 16 16 17 18 18 19 19 19 20 20 20 21 21 21 22 22 22 23 23 23 24 24 25 24 24 23 22 22 21 21 20 20 19 19 19 19 20 20 21 21 22 22 22 21 21 21 21 21 21
26 27 26 24 23 21 20 18 17 16 15 14 14 14 14 14 14 15 15 16 16 17 17 18 18 19 19 19 20 20 21 21 21 22 22 22 23 23 23 23 23 24 24 24 24 23 22 22 21 21 20 20 19 19 20 20 20 21 21 21 22 22 22 22 22 22 22 22 21
26 26 24 23 21 20 18 17 16 15 14 14 14 14 14 14 14 15 16 16 17 17 17 18 18 19 19 19 20 20 21 21 22 22 23 23 22 22 22 22 23 23 24 24 24 23 22 22 21 21 20 20 19 19 19 20 21 21 22 22 22 22 22 22 23 24 25 25 24
25 24 22 21 19 18 16 15 15 14 14 14 14 14 14 14 15 16 16 17 17 17 17 18 18 19 19 20 21 21 22 22 23 23 22 22 21 21 22 22 23 24 24 24 24 24 23 23 22 22 21 20 19 19 19 20 21 21 22 23 23 23 23 23 23 25 26 26 25
23 22 20 19 17 16 15 14 14 13 13 13 14 14 15 15 16 17 17 17 17 17 17 18 18 19 20 21 21 22 22 23 23 22 21 20 20 20 21 22 23 24 24 24 24 24 24 23 23 22 21 20 19 18 19 19 20 21 22 22 23 23 23 23 23 24 25 26 26
21 20 18 17 16 15 14 13 13 13 13 14 14 15 16 16 17 17 17 16 16 17 17 18 19 20 21 21 22 23 23 22 22 21 21 20 20 21 21 22 22 23 24 24 25 25 25 24 24 23 21 19 18 18 18 19 20 21 21 22 22 23 22 22 22 22 23 25 26
19 18 16 15 14 13 13 12 12 13 13 14 15 16 17 17 17 17 17 17 17 17 18 19 20 21 21 22 22 22 22 21 21 21 21 21 22 22 22 22 23 24 24 25 25 25 25 25 24 23 21 19 19 19 19 20 20 21 22 22 22 22 21 21 20 20 21 22 23
17 15 14 13 12 12 12 12 13 14 14 15 16 17 18 18 17 17 17 17 17 18 19 19 20 21 21 21 20 20 21 21 21 21 22 22 23 23 23 23 24 25 25 26 26 26 25 25 24 23 21 20 20 20 20 20 20 21 22 22 22 22 21 20 20 19 19 20 20
14 13 12 11 11 11 12 13 14 15 16 16 17 17 18 18 18 18 18 18 18 19 19 20 20 20 20 20 20 20 21 21 21 22 22 23 24 24 24 24 25 26 26 26 26 26 26 26 25 24 22 20 20 20 20 20 21 22 22 22 21 21 20 20 19 19 18 18 18
11 11 10 10 11 12 13 14 15 16 16 17 17 17 18 18 18 18 18 18 19 19 20 20 21 21 21 20 20 20 21 22 22 22 22 23 23 24 24 24 25 25 26 26 26 26 26 26 26 25 23 21 20 20 19 20 21 22 23 22 22 21 20 20 19 18 18 18 18
Wind_Direction
206 209 211 211 211 209 207 207 206 205 203 201 199 198 198 197 198 200 203 205 207 210 214 218 222 227 230 230 229 228 229 231 233 235 236 239 242 247 252 259 266 272 278 283 288 291 295 298 301 304 306 307 308 307 306 306 307 306 304 302 299 297 296 295 293 291 288 285 284
209 212 213 214 214 213 211 209 208 206 205 203 201 200 200 200 201 203 205 207 209 213 217 220 225 227 227 226 226 226 227 229 231 233 235 238 242 248 254 261 268 274 278 283 287 290 293 297 300 303 305 306 308 307 303 303 305 306 304 300 296 295 295 294 293 292 290 287 285
212 213 214 215 215 213 211 208 207 206 204 203 202 201 201 201 203 205 206 208 211 215 218 221 224 225 225 224 224 225 226 228 230 232 234 238 243 249 256 262 269 274 278 282 286 289 292 294 298 300 302 304 306 304 300 299 303 305 303 297 294 293 293 293 293 292 291 289 288
213 213 213 214 214 213 211 208 206 204 203 202 201 200 201 202 204 205 207 209 211 215 218 221 222 222 222 222 222 223 225 227 229 231 235 239 245 250 257 263 268 273 278 281 285 287 290 293 295 298 300 300 300 296 294 296 299 300 299 296 295 293 292 291 292 292 290 289 289
213 213 214 214 214 213 211 208 205 203 202 202 201 200 201 202 203 205 206 208 211 215 218 221 221 221 221 221 221 223 224 226 228 231 235 240 246 252 258 264 268 272 276 280 283 286 289 291 294 296 297 296 296 294 294 296 297 297 296 296 296 294 293 291 290 290 289 289 289
212 213 214 214 213 211 209 207 204 203 202 202 201 201 201 202 203 205 207 209 212 216 218 219 220 220 219 219 220 221 224 226 228 231 235 241 247 253 258 263 267 272 275 279 281 284 287 289 292 294 295 295 296 296 295 296 297 296 295 293 292 291 291 289 289 289 289 288 288
213 213 213 213 210 208 206 204 203 203 203 203 202 202 202 203 205 206 208 210 213 215 216 217 218 218 218 218 219 221 224 226 229 232 236 241 247 253 258 263 268 271 273 276 279 282 285 288 290 291 292 293 293 293 292 294 295 294 293 291 289 288 288 287 288 288 288 288 287
213 213 213 211 209 207 205 204 203 203 203 203 202 203 204 205 206 207 209 211 213 215 216 217 217 218 218 218 219 222 225 227 231 234 238 243 248 253 258 263 267 270 273 275 278 281 284 286 288 288 287 287 289 289 288 289 291 292 292 290 288 287 287 287 287 288 288 289 289
213 213 212 210 208 207 206 205 204 204 204 204 204 205 206 207 207 208 209 211 214 216 218 217 217 217 218 219 221 223 226 228 232 236 240 244 248 253 257 262 265 268 272 274 277 279 282 284 287 286 285 285 286 287 286 286 288 290 291 290 288 287 286 286 286 286 286 287 288
212 211 210 209 208 207 206 205 206 206 206 205 205 205 206 207 208 209 211 213 216 217 217 216 216 216 217 219 221 224 227 230 233 238 242 246 250 253 257 260 263 265 269 273 276 278 281 283 284 284 284 285 285 285 285 286 287 289 289 288 288 287 287 286 284 283 282 284 285
213 211 210 208 207 206 205 205 205 206 205 205 205 206 206 207 207 209 212 215 216 216 216 217 216 216 217 220 223 226 229 232 235 239 243 247 251 254 257 261 262 263 266 270 275 278 280 282 282 282 282 283 283 283 284 285 287 287 287 287 287 288 288 287 285 283 282 282 283
213 211 210 209 207 206 205 204 204 204 204 204 205 206 206 206 207 210 212 215 215 215 216 217 217 218 219 222 225 228 230 234 237 241 245 249 252 256 259 262 264 264 266 270 275 279 281 282 283 283 283 282 281 281 282 283 285 286 286 286 287 287 287 287 286 284 283 281 281
212 211 210 208 207 206 204 204 203 203 203 204 205 205 205 206 208 211 213 213 214 214 216 217 218 219 221 224 227 230 233 236 239 243 246 250 254 258 261 263 265 267 269 272 277 280 282 283 285 285 284 283 281 279 278 280 282 283 284 285 285 284 284 284 285 285 284 282 280
211 210 209 208 207 205 204 203 203 203 203 204 205 205 205 207 209 211 212 212 212 214 215 217 218 220 223 226 229 232 235 238 241 245 249 253 256 260 262 264 267 269 271 275 279 282 284 285 285 286 285 284 281 279 277 278 279 280 282 282 283 282 283 283 284 284 283 282 281
209 209 209 208 206 205 203 202 202 202 203 203 204 205 206 208 210 210 210 210 212 215 217 218 219 222 224 227 230 233 237 240 244 248 252 255 259 261 263 265 268 271 274 277 280 283 285 286 286 286 284 282 281 279 278 277 278 279 280 282 283 284 284 284 284 283 282 281 281
209 209 209 208 206 204 203 202 202 202 202 203 204 206 208 209 210 210 209 210 213 216 218 220 221 223 226 228 231 235 238 242 246 250 254 257 260 262 264 266 268 272 276 279 282 285 286 287 286 285 283 282 280 279 278 278 278 280 282 284 285 285 285 285 284 283 282 281 281
209 209 209 207 206 204 202 201 201 202 202 203 205 207 208 209 210 210 210 212 215 217 219 221 223 225 228 231 233 237 240 245 249 253 256 258 260 262 264 266 270 273 278 281 284 286 286 287 286 284 282 281 280 279 278 279 280 282 284 285 286 286 286 285 284 282 280 279 278
209 209 209 207 205 204 202 202 202 202 203 205 207 208 209 210 210 211 212 215 217 219 220 222 225 228 231 234 237 240 244 249 253 256 259 260 261 263 265 268 272 276 279 283 285 286 286 285 284 282 281 280 279 279 279 280 282 284 285 286 286 286 285 284 282 280 278 276 276
208 209 208 207 205 203 203 203 203 204 205 207 208 209 210 211 212 213 214 217 219 220 222 224 227 230 234 237 241 245 249 253 256 259 260 261 263 264 267 270 274 278 281 284 286 287 286 284 282 279 278 277 278 279 280 281 283 285 286 286 286 285 284 283 283 282 280 279 279
208 209 208 206 204 203 203 204 205 206 207 208 209 209 210 211 213 214 216 218 220 221 223 226 230 233 237 241 245 249 253 256 258 260 261 263 264 266 269 272 276 280 283 285 287 287 286 283 281 278 276 276 277 278 280 282 283 285 285 285 285 284 284 283 283 283 284 284 284
209 209 208 205 203 203 203 205 206 207 208 209 209 210 211 212 213 215 217 220 222 223 225 229 233 237 241 246 250 253 256 258 260 260 261 263 265 267 271 275 278 282 284 286 287 287 285 283 280 278 276 276 277 278 279 281 282 284 284 284 284 284 284 284 284 285 285 285 284
209 209 207 205 203 203 204 205 206 207 208 208 209 210 211 212 214 216 218 221 223 225 228 232 237 242 246 250 254 257 259 260 261 261 262 263 266 269 273 277 280 283 285 287 288 287 285 282 280 278 277 277 277 278 279 281 282 283 283 283 283 284 285 286 286 286 285 285 284
208 207 206 204 203 203 204 205 206 206 207 207 208 209 211 212 214 217 219 222 224 228 231 236 241 245 250 253 256 259 260 261 261 261 262 264 267 271 275 278 281 284 286 287 288 287 286 283 280 278 277 277 277 278 279 281 282 283 283 283 284 285 287 288 289 288 286 285 284
207 206 205 203 202 203 204 205 205 205 205 206 207 208 210 212 215 217 220 223 227 231 236 240 245 249 252 255 258 259 260 260 260 261 263 265 269 272 276 280 283 285 286 287 288 288 286 283 280 278 277 277 278 279 281 282 283 282 282 282 283 284 286 288 289 288 287 285 284
206 206 205 204 203 203 204 204 203 203 204 205 207 209 211 213 216 218 222 226 231 236 241 245 249 252 255 257 258 259 259 259 259 260 263 267 271 275 279 282 284 285 287 288 289 288 286 282 280 279 279 280 281 282 282 280 278 276 276 276 277 279 281 283 283 283 283 282 281
206 205 205 204 203 203 202 201 201 202 203 205 207 209 211 214 217 220 225 230 235 240 245 249 252 255 257 258 259 259 258 258 259 260 263 267 272 276 280 283 284 285 287 289 289 288 285 281 279 278 278 279 280 279 276 273 270 270 269 269 270 272 273 275 276 276 276 275 275
205 205 205 204 202 200 199 199 200 201 203 205 207 209 212 215 219 224 229 234 239 244 248 252 255 257 258 259 258 258 258 258 260 262 265 268 272 276 279 281 283 285 288 290 289 287 283 280 278 275 274 273 273 273 273 272 271 270 269 268 268 268 269 270 272 274 274 273 271
205 205 204 202 198 196 196 197 198 200 203 205 207 210 213 217 222 228 233 238 243 247 251 254 257 258 259 258 258 258 258 259 261 264 267 271 274 277 280 281 283 286 288 290 289 286 283 280 277 275 272 269 269 269 270 271 272 271 270 268 267 266 266 267 268 270 271 271 270
204 203 200 196 194 193 194 196 197 200 202 205 208 212 216 221 227 233 238 243 247 251 254 256 259 260 259 258 258 259 259 260 262 266 269 273 277 279 281 283 284 286 288 289 288 286 283 280 278 276 273 269 268 268 269 271 271 272 271 269 267 266 265 265 266 267 269 270 271
201 198 195 191 191 191 193 195 197 200 202 206 210 215 221 227 233 238 243 247 252 255 258 260 261 260 259 259 258 259 259 261 264 268 271 275 278 280 282 283 284 286 287 288 287 285 283 281 278 276 274 271 269 268 269 270 271 271 271 270 269 267 266 266 267 268 269 270 271
196 193 190 188 189 190 193 195 197 200 204 209 214 220 226 232 238 243 248 253 257 260 262 263 262 261 260 260 259 259 260 263 267 270 273 276 278 281 282 283 284 286 287 288 287 285 284 282 280 278 276 273 271 269 268 270 271 271 271 270 269 268 268 267 268 268 269 269 270
191 188 186 185 187 190 193 195 199 203 208 213 220 226 232 238 244 249 254 258 261 263 264 263 262 261 260 259 259 260 262 265 268 271 274 277 279 281 282 283 283 284 286 288 288 287 285 284 282 280 278 275 272 270 269 270 271 271 271 270 270 268 267 267 267 268 268 269 269
186 184 183 184 187 190 194 197 201 206 213 219 226 232 238 244 250 256 260 263 265 265 264 263 262 260 258 258 259 262 265 268 270 273 276 278 279 280 281 281 281 282 285 287 288 288 287 286 284 282 279 277 274 272 271 271 272 272 271 271 270 268 267 266 266 267 268 268 268
182 182 182 185 189 192 196 200 206 212 219 225 232 238 245 251 258 263 266 268 268 267 266 264 262 261 260 260 261 264 267 270 273 275 277 278 279 279 278 278 278 281 284 286 288 288 287 286 284 282 280 278 276 274 273 272 272 272 272 271 271 270 268 267 267 267 268 269 268
181 181 183 187 191 195 199 205 211 218 225 232 239 246 253 260 265 269 271 272 271 269 267 265 263 262 262 262 263 265 268 271 274 275 277 277 276 276 275 276 278 281 284 286 288 288 287 286 285 283 282 280 278 276 274 274 274 273 272 272 271 270 269 268 268 268 269 269 268
181 182 185 190 194 199 205 211 218 226 233 240 248 256 262 268 271 273 274 273 272 269 267 265 263 262 262 263 265 268 270 272 274 275 275 274 273 273 273 275 278 281 284 286 288 288 288 287 286 285 284 281 278 276 275 276 276 275 274 273 272 271 270 270 269 269 269 269 268
183 185 188 193 198 204 211 219 227 235 243 251 258 264 269 273 275 276 275 273 270 268 266 265 264 263 264 265 268 270 272 273 273 273 273 273 272 272 273 276 278 280 283 285 287 288 288 288 287 286 284 280 278 277 277 278 277 276 275 274 273 272 271 271 270 270 269 268 268
185 188 193 198 205 213 221 229 238 246 255 262 267 272 275 276 277 276 274 272 268 267 266 266 265 266 268 270 271 273 273 273 272 272 272 273 273 273 274 276 278 280 282 285 286 287 288 288 287 286 283 280 279 279 279 278 277 277 276 275 274 273 272 271 271 270 268 267 267
187 192 198 206 215 224 233 242 251 258 264 269 273 276 277 278 277 276 274 272 269 267 266 266 268 269 271 272 273 273 273 272 272 272 273 274 275 275 275 276 278 280 283 285 286 287 287 287 286 285 282 279 279 279 279 279 278 277 277 276 275 274 273 272 271 270 268 266 264
191 199 207 217 228 238 248 256 262 267 271 274 276 277 278 278 277 276 274 272 270 269 268 268 270 272 273 273 272 272 273 273 273 273 274 275 277 277 278 277 278 281 283 284 285 285 285 285 284 283 281 278 278 278 278 278 278 277 276 275 275 275 275 273 271 269 268 266 266
201 211 222 234 244 253 260 266 270 273 276 277 277 278 278 278 278 276 275 273 272 272 271 272 273 274 274 273 273 273 273 274 274 274 274 275 276 277 277 278 279 280 282 283 284 284 284 283 283 282 280 277 277 277 276 277 276 276 275 274 274 274 274 274 272 270 268 267 268
Height
828 828 829 830 831 832 833 834 835 836 837 838 838 839 840 842 842 843 843 844 845 846 846 847 848 848 848 849 849 850 850 851 851 851 852 852 852 852 852 852 852 852 852 852 852 852 852 851 851 851 851 850 850 850 850 849 849 848 848 848 847 847 846 846 846 845 845 844 844
827 828 828 829 830 831 832 833 834 834 835 836 837 838 839 840 841 842 842 843 843 844 845 846 847 847 848 848 848 849 849 850 850 850 851 851 851 851 851 851 851 851 851 851 851 851 851 850 850 850 850 849 849 849 849 848 848 848 847 847 846 846 845 845 844 844 844 843 843
825 827 828 828 829 830 830 831 832 833 834 835 837 838 838 839 840 840 841 842 843 843 844 845 845 846 847 847 848 848 848 849 849 849 849 850 850 850 850 850 850 850 850 850 850 850 850 849 849 849 849 848 848 848 848 847 847 846 846 846 845 845 844 843 843 843 843 842 842
824 825 826 827 828 828 829 830 831 832 833 834 836 837 837 838 838 839 840 841 841 842 843 843 844 845 845 846 846 847 847 848 848 848 848 848 849 849 849 849 849 849 849 849 849 849 848 848 848 848 848 848 848 848 847 847 846 845 845 844 844 843 843 843 842 842 841 841 840
823 824 825 826 827 828 828 829 830 831 832 833 834 835 836 837 837 838 839 839 840 841 842 843 843 843 844 845 845 846 846 847 847 847 847 848 848 848 848 848 848 848 848 848 848 848 848 847 847 847 847 847 846 846 846 845 845 844 844 843 843 842 842 841 841 840 840 839 839
822 823 824 825 826 827 828 828 829 830 831 832 833 834 834 835 836 837 837 838 839 840 841 841 842 843 843 843 844 845 845 845 846 846 846 846 846 847 847 847 847 847 847 847 846 846 846 846 846 846 846 845 845 845 844 844 844 843 843 842 842 841 841 840 840 839 839 838 838
821 822 823 824 825 826 827 828 828 829 830 831 832 833 833 834 834 835 836 837 838 839 839 840 841 841 842 843 843 843 844 844 844 845 845 845 845 845 845 845 845 845 845 845 845 845 845 845 845 845 844 844 844 843 843 843 843 842 842 841 841 840 839 839 838 838 837 837 836
820 821 822 823 824 825 825 826 827 828 829 830 831 831 832 833 833 834 835 836 837 838 838 839 839 840 841 841 842 842 843 843 843 843 844 844 844 844 844 844 844 844 844 844 844 844 844 844 844 844 843 843 843 843 842 842 841 841 840 840 839 839 838 838 837 836 836 835 835
819 820 821 822 823 823 824 825 826 827 828 829 829 830 831 832 833 833 834 835 835 836 837 838 838 839 840 840 841 841 841 842 842 842 843 843 843 843 843 843 843 843 843 843 843 843 843 843 843 842 842 842 842 841 841 840 840 839 839 838 838 838 837 836 836 835 834 834 833
818 819 820 821 821 822 823 824 825 826 827 828 829 829 830 831 832 832 833 833 834 835 836 837 838 838 839 839 839 840 840 841 841 841 841 842 842 842 842 842 842 842 842 842 842 842 842 842 841 841 841 841 840 840 839 839 838 838 837 837 836 836 835 835 834 834 833 833 832
817 818 818 819 820 821 822 823 824 825 826 827 828 828 829 830 831 831 832 833 833 834 835 836 836 837 838 838 838 839 839 839 840 840 840 840 840 841 841 841 841 841 841 840 840 840 840 840 840 840 839 839 839 838 838 837 837 836 836 835 835 834 834 833 833 833 832 831 830
816 817 818 818 819 820 821 822 823 824 825 826 827 828 828 829 829 830 831 832 833 833 834 835 835 836 837 837 837 838 838 838 838 839 839 839 839 839 839 840 840 840 840 839 839 839 839 839 838 838 838 838 838 837 836 836 835 835 834 833 833 833 832 832 831 831 830 830 829
814 815 816 817 818 819 820 821 822 823 824 825 826 826 827 828 828 829 830 831 832 832 833 833 834 835 835 836 836 837 837 837 838 838 838 838 838 838 838 838 838 838 838 838 838 838 837 837 837 837 837 836 836 835 835 834 834 833 833 832 832 831 831 830 829 829 828 828 828
813 814 815 816 817 818 819 820 821 822 823 824 824 825 826 827 827 828 829 830 831 831 832 833 833 834 834 835 835 835 836 836 836 837 837 837 837 837 837 837 837 837 837 837 836 836 836 836 835 835 835 834 834 834 833 833 832 832 831 831 830 829 829 828 828 827 827 826 826
812 813 813 814 815 817 818 819 820 821 822 823 823 824 825 825 826 827 828 829 829 830 831 832 832 833 833 834 834 834 835 835 835 836 836 836 836 836 836 836 836 835 835 835 835 834 834 834 834 833 833 833 833 832 832 831 831 830 829 829 828 828 827 827 826 826 825 825 824
810 811 812 813 814 815 816 818 818 819 820 821 822 823 823 824 825 826 827 828 828 829 830 830 831 832 832 833 833 833 834 834 834 834 834 834 834 834 834 834 834 834 833 833 833 833 833 832 832 832 831 831 831 830 830 829 829 828 827 827 826 826 825 824 824 824 823 823 823
809 809 811 812 813 814 815 816 817 818 819 820 821 821 822 823 824 825 826 827 827 828 829 829 830 831 831 832 832 833 833 833 833 833 833 833 833 833 833 833 833 832 832 832 832 831 831 831 830 830 829 829 829 828 828 828 827 826 825 825 824 824 823 823 823 822 822 822 821
807 808 809 810 812 813 814 815 816 817 818 818 819 820 821 822 823 824 825 826 826 827 828 828 829 830 830 831 831 831 832 832 832 832 832 832 832 832 832 831 831 831 830 830 830 830 830 829 829 828 828 827 827 826 826 825 825 824 823 823 822 822 821 821 821 820 820 820 819
806 807 808 809 810 812 813 814 815 816 817 818 818 819 820 821 822 823 824 825 825 826 827 828 828 829 829 830 830 830 830 830 830 830 830 830 830 830 830 830 830 829 829 828 828 828 828 828 827 827 826 826 825 824 824 823 823 822 822 821 820 820 819 819 818 818 818 818 817
805 806 807 808 809 811 812 813 814 815 816 817 818 818 819 820 821 822 823 824 825 825 826 827 827 828 828 828 829 829 829 829 829 829 829 829 829 828 828 828 828 828 827 827 827 827 826 826 826 825 824 824 823 823 822 822 821 820 820 819 818 818 818 817 817 816 816 815 815
804 805 806 807 809 810 811 812 813 814 815 816 817 818 819 820 821 822 822 823 824 825 825 826 827 827 827 828 828 828 828 828 828 828 828 827 827 827 827 827 827 826 826 825 825 825 825 824 824 823 823 822 822 821 820 820 819 818 818 817 817 816 816 815 815 814 814 813 813
803 804 806 807 808 809 810 811 812 813 814 815 816 817 818 819 820 821 822 823 823 824 825 825 826 826 826 826 826 826 826 826 826 826 826 826 826 826 825 825 825 824 824 823 823 823 823 822 822 821 821 820 820 819 819 818 817 817 816 815 815 814 813 813 813 812 812 811 811
803 804 805 806 808 808 809 810 812 813 814 815 816 817 818 818 819 820 821 822 823 823 824 824 824 825 825 825 825 825 825 825 825 825 824 824 824 824 824 823 823 823 822 822 822 821 821 820 820 819 819 818 818 817 817 816 815 814 814 813 813 812 811 811 810 810 809 809 808
802 803 804 805 806 808 808 810 811 812 813 814 815 816 817 818 818 819 820 821 822 822 823 823 823 823 824 824 824 824 823 823 823 823 823 823 823 823 822 822 821 821 821 820 820 819 819 818 818 818 817 817 816 815 815 814 813 813 812 811 810 810 809 808 808 808 807 807 806
801 802 803 804 805 807 808 809 811 812 813 813 814 815 816 817 818 819 819 820 821 821 822 822 822 822 823 823 822 822 822 822 822 822 822 821 821 821 820 820 820 819 819 818 818 818 817 817 816 815 815 814 814 813 813 812 812 811 810 810 809 808 807 807 806 806 805 804 804
799 801 802 803 804 806 808 809 810 811 812 813 814 815 816 817 818 818 819 819 820 820 821 821 821 821 821 821 821 821 821 821 820 820 820 820 820 819 819 818 818 817 817 817 816 816 815 815 814 814 813 813 812 812 811 811 810 810 809 808 808 807 806 805 804 804 803 803 802
798 799 801 803 804 806 807 808 810 811 812 813 813 814 815 816 817 818 818 818 819 819 819 820 820 820 820 820 819 819 819 819 819 819 818 818 818 818 817 817 816 815 815 815 814 814 814 813 813 812 812 811 811 810 810 809 808 808 807 806 806 805 804 803 803 802 802 801 800
797 799 800 802 804 805 807 808 809 810 811 812 813 814 815 816 816 817 817 818 818 818 818 818 818 818 818 818 818 818 818 818 818 817 817 817 816 816 815 815 814 813 813 813 813 812 812 811 811 810 810 810 809 809 808 807 807 806 805 804 803 803 802 801 801 800 799 799 798
797 798 800 802 803 805 806 807 808 810 811 812 813 813 814 815 815 816 816 817 817 817 817 817 817 817 817 817 817 816 816 816 816 815 815 815 814 814 813 813 813 812 811 811 811 810 810 809 809 808 808 808 808 807 806 805 805 804 803 802 802 801 800 799 798 798 797 797 796
797 798 799 801 803 804 806 807 808 809 810 811 812 813 813 814 814 815 815 815 816 816 816 816 816 816 815 815 815 815 815 814 814 814 813 813 813 812 812 811 810 810 809 809 809 808 808 807 807 806 806 806 806 805 804 803 803 802 801 800 799 799 798 797 797 796 795 795 794
796 798 799 801 803 804 805 807 808 809 810 811 812 812 813 813 813 814 814 814 814 815 815 814 814 814 814 814 814 813 813 813 812 812 812 811 811 810 810 809 808 808 807 807 807 806 806 805 805 804 804 804 803 803 802 802 801 800 799 798 797 796 796 795 794 794 793 793 792
796 798 799 801 803 804 805 807 808 809 810 810 811 811 812 812 813 813 813 813 813 813 813 813 813 813 813 812 812 812 811 811 811 810 810 809 809 808 808 807 806 806 805 805 804 804 803 803 803 802 802 802 802 801 800 799 798 798 797 796 795 794 793 793 792 791 791 791 790
796 798 799 801 803 804 805 807 808 808 809 810 810 811 811 811 812 812 812 812 812 812 812 812 811 811 811 811 810 810 810 809 809 808 808 808 807 806 806 805 804 803 803 803 802 802 801 801 800 800 800 799 799 799 798 797 796 795 794 793 792 792 791 790 789 789 788 788 788
797 798 800 802 803 804 805 806 807 808 809 809 809 810 810 811 811 811 811 811 811 811 810 810 810 810 809 809 809 808 808 808 807 807 806 806 805 804 804 803 802 801 801 800 800 799 799 799 798 798 798 798 797 797 796 795 794 793 792 791 790 789 788 788 787 786 786 785 785
797 799 800 802 803 804 805 806 807 808 808 808 809 809 809 810 810 810 810 809 809 809 809 808 808 808 808 808 807 807 806 806 805 805 804 804 803 803 802 801 800 799 799 798 798 798 797 797 796 796 796 795 795 794 793 793 792 791 789 788 788 787 786 785 785 784 783 783 783
798 800 801 802 803 804 805 806 807 807 808 808 808 808 808 809 808 808 808 808 808 808 807 807 807 806 806 806 805 805 804 804 803 803 803 802 801 801 799 798 798 797 797 796 796 795 795 794 794 794 794 793 793 792 791 790 789 788 787 786 785 784 784 783 783 782 781 780 779
799 800 802 803 803 804 805 806 806 807 807 807 808 808 808 808 807 807 807 807 806 806 806 805 805 805 804 804 803 803 803 802 802 801 800 800 799 798 798 797 796 795 794 794 793 793 793 792 792 792 792 792 791 790 789 788 787 786 785 784 783 782 781 781 780 779 778 778 777
800 801 802 803 804 804 805 805 806 806 806 807 807 807 806 806 806 805 805 805 805 804 804 804 803 803 803 802 802 801 801 800 800 799 798 798 797 796 796 794 793 793 792 792 791 791 790 790 790 790 790 789 789 788 787 786 785 784 783 782 780 779 779 778 778 777 776 775 774
800 801 802 803 804 804 805 805 805 805 806 806 805 805 805 805 804 804 804 804 803 803 803 802 802 801 801 801 800 799 798 798 798 797 796 795 795 794 793 793 791 790 790 789 789 788 788 788 787 787 787 787 787 786 785 784 783 782 780 779 778 777 777 776 776 775 774 773 773
801 802 803 803 803 804 804 804 805 805 805 804 804 804 803 803 803 803 803 802 802 802 801 801 800 800 799 799 798 797 797 796 795 795 794 793 792 792 791 790 789 788 787 787 787 786 786 785 785 785 785 785 785 784 783 782 781 779 778 777 776 775 774 774 773 773 772 771 770
801 802 803 803 803 803 804 804 803 803 803 803 803 803 802 802 802 801 801 801 800 800 799 799 798 798 798 797 796 795 794 793 793 792 792 791 790 789 788 788 787 786 785 784 784 784 783 783 783 783 783 783 782 782 781 780 778 777 776 775 774 773 773 772 771 770 770 769 768